Main page
METAR-TAF:

METAR-TAF

Airports :

Tafraoui, Algeria

Oran Tafraoui Airport

latitude: 35-32-33N, longitude: 000-31-56W, elevation: 112 m

Current weather observation

The report was made 4 hours and 51 minutes ago, at 12:00 UTC
Wind 8 kt from the North/Northeast
Temperature 33°C
Humidity 24%
Pressure 1014 hPa
Visibility 10 km or more
no clouds below 1500 m and no cumulonimbus

METAR: DAOL 221200Z 02008KT CAVOK 33/10 Q1014

Time: 17:51 (16:51 UTC)


TAF: missing

Weather observations and forecasts of more than 4000 airports (METAR and TAF reports).

The available stations are represented by yellow and red dots on the map.

Hover mouse over dot to see the name of the station.

Then click to see weather observations and forecasts.

To change the map : click on the green buttons with a black cross to zoom in, on the green button with a dash to zoom out, or on the green arrows for adjacent maps.


METAR-TAF: